Regional Weather Roundup
Issued by NWS

Home | Current Version | Previous Version | Text Only | Print | Product List | Glossary On
Versions: 1 2 3 4 5 6 7 8 9 10 11 12 13 14 15 16 17 18 19 20 21 22 23 24 25 26 27 28 29 30 31 32 33 34 35 36 37 38 39 40 41 42 43 44 45 46 47 48 49 50
000
ASUS42 KTBW 301916
RWRFL
FLORIDA REGIONAL WEATHER ROUNDUP
NATIONAL WEATHER SERVICE TAMPA BAY RUSKIN FL
300 PM EDT SAT MAY 30 2015

NOTE: "FAIR" INDICATES FEW OR NO CLOUDS BELOW 12,000 FEET WITH NO
SIGNIFICANT WEATHER AND/OR OBSTRUCTIONS TO VISIBILITY.


FLZ001>010-012>015-112-114-115-302000-
PANHANDLE FLORIDA

CITY           SKY/WX    TMP DP  RH WIND       PRES   REMARKS
PENSACOLA      SUNNY     85  72  65 S10       30.07F
PENSACOLA NAS  MOSUNNY   85  71  63 S10       30.07F
MILTON NAS     PTSUNNY   86  68  54 SW13      30.06
CRESTVIEW      PTSUNNY   86  69  56 S14       30.09F THUNDER
DUKE FIELD     FAIR      86  66  51 SE16      30.06F
VALPARAISO     MOSUNNY   85  71  63 S13       30.07F
MARY ESTHER    MOSUNNY   84  70  61 S13       30.06
TRI COUNTY     FAIR      88  64  44 NE8       30.08F
PANAMA CITY    FAIR      85  72  65 S13       30.06F THUNDER
TYNDALL AFB    MOSUNNY   84  73  67 S16       30.07F
APALACHICOLA   SUNNY     89  70  53 S12       30.08F

STATION/POSITION SKY/WX   TEMP    WIND        PRES    WAVE   SWELL
                          AIR SEA DIR/SP/G            HT/PER HT/PER
                          (F)     (DEG/KT/KT) (MB)    (FT/S) (FT/S)
30.1N   87.6W              80 81  110/  6/  6 1017.9F   3/ 6   2/ 6
29.2N   88.2W              78 83  120/  6/ 10 1018.5F   2/ 7   2/ 7
28.8N   86.0W              80 81  130/  8/ 10 1018.5F   3/ 5   3/ 5
PANAMA CITY BEAC           81 82  190/ 13/ 15 1018.9F
CAPE SAN BLAS    NOT AVBL
TOWER C                    78     130/  7/  8 1018.7F
28.5N   84.5W              80 82  110/  8/  8 1018.5F   2/ 5   2/ 5

$$
FLZ011-016>038-118-127-128-134-139-239-302000-
NORTH FLORIDA

CITY           SKY/WX    TMP DP  RH WIND       PRES   REMARKS
MARIANNA       PTSUNNY   88  66  48 E3        30.07F
TALLAHASSEE    MOSUNNY   93  62  35 NE9       30.06F
PERRY          MOSUNNY   88  62  41 E3        30.07F
CROSS CITY       N/A     91  65  41 NE6       30.05F
LAKE CITY      CLOUDY    82  70  65 NE9       30.07F
GAINESVILLE    MOSUNNY   88  67  49 SE7G18    30.06F
MAYPORT NAS    MOSUNNY   84  72  67 E13       30.10F
JACKSONVILLE   PTSUNNY   75  73  93 NW3       30.10F
JAX NAS        PTSUNNY   82  71  69 NW8       30.10F
JAX CRAIG      PTSUNNY   84  68  58 SE10      30.10F
JAX CECIL      PTSUNNY   77  73  88 NE9       30.10F
FERNANDINA BEA FAIR      86  73  66 E10       30.10F
ST AUGUSTINE   SUNNY     83  73  72 E13       30.10F

STATION/POSITION SKY/WX   TEMP    WIND        PRES    WAVE   SWELL
                          AIR SEA DIR/SP/G            HT/PER HT/PER
                          (F)     (DEG/KT/KT) (MB)    (FT/S) (FT/S)
SHELL POINT                81     170/  7/  8   N/A
KEATON BEACH               81     270/  9/ 10 1018.3F
CEDAR KEY                  82     260/  8/ 10 1018.0F
FERNANDINA                 81 81   80/  6/ 10 1019.2F
30.7N   81.3W                 81                N/A     3/ 9
MAYPORT                    79 80   70/ 11/ 12 1019.9F
31.4N   80.9W              75 79   70/ 10/ 12 1020.4F   3/ 8   3/ 8
ST AUGUSTINE               79 81   70/  9/ 10 1019.8F

$$
FLZ040-043>046-052-053-057-058-063-144-302000-
INTERIOR CENTRAL FLORIDA

CITY           SKY/WX    TMP DP  RH WIND       PRES   REMARKS
OCALA          PTSUNNY   90  66  45 NE8       30.05F
THE VILLAGES     N/A     90  70  51 VRB6      29.94F HX  95
LEESBURG       MOSUNNY   91  66  43 E13       30.05F
SANFORD        MOSUNNY   89  67  47 E13       30.05F
ORLANDO EXEC   PTSUNNY   86  68  54 NE9       30.04F
ORLANDO INTL   PTSUNNY   88  68  51 E13G20    30.04F
KISSIMMEE      MOSUNNY   88  70  55 SE14      30.05F
WINTER HAVEN   MOSUNNY   91  67  44 MISG      30.05F
LAKELAND       PTSUNNY   88  66  48 CALM      30.05F
BARTOW         MOSUNNY   88  64  45 CALM      30.05F
OKEECHOBEE     CLOUDY    86  68  54 E9        30.04S

$$
FLZ041-047-054-059-064-141-147-302000-
EAST CENTRAL FLORIDA

CITY           SKY/WX    TMP DP  RH WIND       PRES   REMARKS
ORMOND BEACH   MOSUNNY   82  70  65 NE12G17   30.08F
DAYTONA BEACH  PTSUNNY   84  70  62 NE14G22   30.08F
DELAND           N/A     88  66  48 E13G18    30.07F
NEW SMYRNA BEA MOSUNNY   84  72  65 E14       30.09F
JFK SPACE CTR  SUNNY     87  66  50 E10       30.05F
TITUSVILLE     MOSUNNY   86  70  58 E12       30.06F
CAPE CANAVERAL SUNNY     84  71  63 E9        30.05F
PATRICK AFB    MOSUNNY   85  71  64 E10       30.06F
MELBOURNE      MOSUNNY   86  69  56 E13       30.06F
VERO BEACH     MOSUNNY   85  69  58 E12       30.06F
FT PIERCE      MOSUNNY   85  70  60 E12       30.05F
STUART         PTSUNNY   84  68  58 E14       30.07

STATION/POSITION SKY/WX   TEMP    WIND        PRES    WAVE   SWELL
                          AIR SEA DIR/SP/G            HT/PER HT/PER
                          (F)     (DEG/KT/KT) (MB)    (FT/S) (FT/S)
28.5N   80.2W              79 81   90/  6/  8 1018.8F
28.9N   78.5W              78 79   80/ 12/ 14 1019.2F
TRIDENT PIER               85 83   90/  8/ 12 1019.0F
28.4N   80.5W                 83                N/A     2/ 9
27.5N   80.2W                 82                N/A     3/ 9

$$
FLZ050-056-061-142-242-148-248-149-249-151-251-155-255-
160-260-302000-
WEST CENTRAL FLORIDA

CITY           SKY/WX    TMP DP  RH WIND       PRES   REMARKS
CRYSTAL RIVER  FAIR      90  64  43 SE6       30.03F
INVERNESS      FAIR      91  68  46 E8        30.04F HX  95
BROOKSVILLE    MOSUNNY   89  69  51 S7        30.05F
CLEARWATER     SUNNY     89  68  49 N6        30.04F
TAMPA INTL     PTSUNNY   85  68  56 W10       30.04F
TAMPA EXEC     PTSUNNY   91  70  49 N3        30.04F HX  97
PLANT CITY     MOSUNNY   88  72  58 NE5       30.06F
MACDILL AFB    MOSUNNY   91  70  50 NW6       30.03F HX  96
PETER O KNIGHT CLOUDY    90  68  48 S5        30.04F
ST PETERSBURG  SUNNY     90  65  43 CALM      30.02F
SARASOTA       SUNNY     85  70  60 W12       30.02F
VENICE         FAIR      84  72  65 W9        30.04F

STATION/POSITION SKY/WX   TEMP    WIND        PRES    WAVE   SWELL
                          AIR SEA DIR/SP/G            HT/PER HT/PER
                          (F)     (DEG/KT/KT) (MB)    (FT/S) (FT/S)
CEDAR KEY                  82     260/  8/ 10 1018.0F
28.5N   84.5W              80 82  110/  8/  8 1018.5F   2/ 5   2/ 5
27.3N   84.2W                 81                N/A     3/ 5
CLEARWATER BEACH           82 83  300/  6/  7 1017.8F
MIDDLE TAMPA BAY           82     360/  6/  8 1018.1F
VENICE                     82 85  260/  8/  9 1016.7F

$$
FLZ066-069-070-075>078-162-262-165-265-302000-
SOUTHWEST FLORIDA AND KEYS

CITY           SKY/WX    TMP DP  RH WIND       PRES   REMARKS
PUNTA GORDA    PTSUNNY   90  68  48 VRB3      30.03F
FT MYERS       PTSUNNY   89  66  46 W6        30.00F
SOUTHWEST INTL CLOUDY    88  64  44 E5        30.01F
NAPLES         MOSUNNY   86  71  60 W12       30.01F
MARCO ISLAND     N/A     88  70  55 W9G16     30.01F
IMMOKALEE      CLEAR    N/A N/A N/A CALM      30.02F
MARATHON       SUNNY     87  71  58 E9        30.01F
KEY WEST NAS   MOSUNNY   87  70  56 E13       30.02F
KEY WEST INTL  SUNNY     86  70  58 E13       30.02F

STATION/POSITION SKY/WX   TEMP    WIND        PRES    WAVE   SWELL
                          AIR SEA DIR/SP/G            HT/PER HT/PER
                          (F)     (DEG/KT/KT) (MB)    (FT/S) (FT/S)
VENICE                     82 85  260/  8/  9 1016.7F
NAPLES                     82 84  280/  6/  8 1017.0F
26.0N   85.6W              80 83   80/  8/  8 1017.1F   1/ 5   2/ 5
DRY TORTUGAS               82      80/  8/  9 1016.7F
NW FL BAY                  82     120/  9/ 13 1017.1
SAND KEY                   81     100/ 11/ 13 1016.6F
SOMBRERO KEY               82     110/ 11/ 12 1017.1F
LONG KEY                   81 83  120/  9/ 11 1017.2F
MOLASSES REEF              80 82   90/ 10/ 11 1016.6F

$$
FLZ067-068-071>074-168-172>174-302000-
SOUTHEAST FLORIDA

CITY           SKY/WX    TMP DP  RH WIND       PRES   REMARKS
W PALM BEACH   MOSUNNY   86  67  52 E13       30.05F
FT LAUDER-EXEC MOSUNNY   86  70  58 E12       30.03F
FT LAUDERDALE  MOSUNNY   85  71  63 E13       30.03F
POMPANO BEACH  SUNNY     85  69  58 E12G18    30.03F
PEMBROKE PINES MOSUNNY   87  69  54 E15       30.04F
OPA LOCKA      MOSUNNY   88  70  55 E14       30.03F
MIAMI          MOSUNNY   87  69  54 E14G24    30.02F
WEST KENDALL   MOSUNNY   88  69  53 E14G21    30.02F
HOMESTEAD      MOSUNNY   85  71  61 E12       30.02F

STATION/POSITION SKY/WX   TEMP    WIND        PRES    WAVE   SWELL
                          AIR SEA DIR/SP/G            HT/PER HT/PER
                          (F)     (DEG/KT/KT) (MB)    (FT/S) (FT/S)
PORT EVERGLADES            83      90/  7/ 10 1017.1F
VIRGINIA KEY               80 83  150/  7/ 13 1017.2F


USA.gov is the U.S. government's official web portal to all federal, state and local government web resources and services.